TimePST,TemperatureF,Dew PointF,Humidity,Sea Level PressureIn,VisibilityMPH,Wind Direction,Wind SpeedMPH,Gust SpeedMPH,PrecipitationIn,Events,Conditions,WindDirDegrees,DateUTC
12:53 AM,32.0,30.9,96,30.28,10.0,Calm,Calm,-,N/A,,Clear,0,2013-01-04 08:53:00
1:53 AM,30.9,30.0,96,30.29,10.0,Calm,Calm,-,N/A,,Clear,0,2013-01-04 09:53:00
2:53 AM,30.9,30.0,96,30.30,10.0,Calm,Calm,-,N/A,,Clear,0,2013-01-04 10:53:00
3:53 AM,28.9,28.9,100,30.29,10.0,Calm,Calm,-,N/A,,Clear,0,2013-01-04 11:53:00
4:53 AM,30.9,28.9,92,30.28,10.0,Calm,Calm,-,N/A,,Clear,0,2013-01-04 12:53:00
5:53 AM,30.0,28.9,96,30.29,10.0,Calm,Calm,-,N/A,,Clear,0,2013-01-04 13:53:00
6:53 AM,30.0,28.9,96,30.30,10.0,Calm,Calm,-,N/A,,Clear,0,2013-01-04 14:53:00
7:53 AM,30.0,28.9,96,30.30,10.0,Calm,Calm,-,N/A,,Clear,0,2013-01-04 15:53:00
8:53 AM,41.0,35.1,79,30.31,10.0,ENE,4.6,-,N/A,,Clear,70,2013-01-04 16:53:00
9:53 AM,46.0,34.0,63,30.33,10.0,Variable,3.5,-,N/A,,Clear,0,2013-01-04 17:53:00
10:53 AM,48.9,34.0,56,30.32,10.0,Calm,Calm,-,N/A,,Clear,0,2013-01-04 18:53:00
11:53 AM,51.1,35.1,54,30.29,10.0,NNE,4.6,-,N/A,,Clear,30,2013-01-04 19:53:00
12:53 PM,53.1,35.1,50,30.26,10.0,Variable,3.5,-,N/A,,Clear,0,2013-01-04 20:53:00
1:53 PM,55.9,36.0,47,30.24,10.0,ENE,5.8,-,N/A,,Clear,70,2013-01-04 21:53:00
2:53 PM,55.9,33.1,42,30.23,10.0,NNE,5.8,-,N/A,,Clear,30,2013-01-04 22:53:00
3:53 PM,55.0,34.0,45,30.23,10.0,Calm,Calm,-,N/A,,Clear,0,2013-01-04 23:53:00
4:53 PM,44.1,33.1,65,30.22,10.0,Calm,Calm,-,N/A,,Clear,0,2013-01-05 00:53:00
5:53 PM,39.0,34.0,82,30.22,10.0,Calm,Calm,-,N/A,,Clear,0,2013-01-05 01:53:00
6:53 PM,37.9,34.0,86,30.24,10.0,Calm,Calm,-,N/A,,Clear,0,2013-01-05 02:53:00
7:53 PM,35.1,32.0,89,30.25,10.0,Calm,Calm,-,N/A,,Clear,0,2013-01-05 03:53:00
8:53 PM,36.0,33.1,89,30.25,10.0,Calm,Calm,-,N/A,,Clear,0,2013-01-05 04:53:00
9:53 PM,33.1,33.1,100,30.27,10.0,Calm,Calm,-,N/A,,Clear,0,2013-01-05 05:53:00
10:53 PM,35.1,33.1,92,30.27,10.0,Calm,Calm,-,N/A,,Clear,0,2013-01-05 06:53:00
11:53 PM,33.1,32.0,96,30.27,10.0,Calm,Calm,-,N/A,,Clear,0,2013-01-05 07:53:00